Showing default

KL-ALPHA B, 44786

Orbit data source: Space-Track

KL-ALPHA B, 44786 is a German payload satellite in LEO that was launched on Sun, 17 Nov 2019 UTC via a KUAIZHOU-1A launch vehicle from the Jiuquan Satellite Launch Center, China (JSC). Payload-class satellites include a variety of spacecraft equipped with specific instruments for various scientific and technological missions. These include communications satellites like Starlink; space stations such as the ISS; scientific satellites like the Hubble; Earth observation satellites from companies like Planet Labs, Umbra, and HawkEye 360; GPS; miniature CubeSats for education and research; and military/defense satellites.

Loading next visibility...
Identifier
44786, 2019-077B
Orbit
LEO
Country
Flag of DEDE / GER
Related business
Manufacturer
IMI/CAS
Mission
Operational Commercial Communications
Bus & Motor
KLA, Unknown motor
Mass
90 kg wet, ~85 kg dry
Launch date (UTC)
2019-11-17 (7 years ago)
Launch vehicle
KUAIZHOU-1A
Launch site
Jiuquan Satellite Launch Center, China (JSC)
Object type
Payload
Rocket body
Debris
Shape & HBR
Box + 1 Pan, Unknown HBR
Radar Cross Section
0.900 m², Medium (>0.1 m² and < 1m²)

Expand to show TLE details & history
Last TLE update: 21 hours ago

TLE from 21 hours ago
0 KL-ALPHA B
1 44786U 19077B   26172.55557550  .00000025  00000-0  17421-4 0  9994
2 44786  88.9107 219.6713 0027975 133.9374 226.4095 13.56003190325773
Epoch: 2026-06-21T13:20Z
TLE epoch observation values (Epoch: 2026-06-21T13:20:01.723Z)
Latitude
-0.00002°
Longitude
109.90996°
Altitude
1,067.575 km
Speed
7.311 km/s
True Right ascension
14h 38m 41s
True Declination
0° 00' 00"
Sunlit
Object was in full shadow at epoch
Visualization orbit readout
Latitude
Unknown
Longitude
Unknown
Altitude
Unknown
Speed
Unknown
Apparent Right ascension
Unknown
Apparent Declination
Unknown
Sunlit
N/A
Visualization observer readout
Local Sidereal Time
21:34:58
Azimuth
Unknown
Elevation
Unknown
Doppler factor
Unknown
Orbital elements
Apogee altitude
1,068.07 km
Perigee altitude
1,026.525 km
Semi-major axis
7,425.434 km
Eccentricity
0.0028
Inclination
88.9107°
RAAN
219.6713°
Arg. of periapsis
133.9374°
True anomaly
226.17787°
Mean anomaly
226.4095°
Eccentric anomaly
226.29363°
Mean motion
3.39204 °/min
Orbital period
106.13 mins
BSTAR
0.000017421
Loading maneuver chart data...
Computing Atmospheric mass density...
Loading historical data...
Loading historical data...
Loading historical data...
Loading historical data...
Loading historical data...
Loading historical data...
Loading historical data...
Other satellites on launch #77 in the year 2019 (2019-11-17 UTC)

Documentation

Showing up to 5 results
|